Location: York
(31.8935°S, 116.7682°E)
Time: 11:41:09
(UTC+08:00)

Transit 4A - All Passes

Search period start: 06 October 2022 00:00
Search period end: 16 October 2022 00:00
Orbit: 870 x 974 km, 66.8° (Epoch: 05 October)

Date Brightness Start Highest point End Pass type
(mag) Time Alt. Az. Time Alt. Az. Time Alt. Az.
06 Oct - 07:32:45 10° NE 07:35:16 13° ENE 07:37:49 10° ESE daylight
06 Oct - 09:14:53 10° NNW 09:20:48 72° WSW 09:26:58 10° SSE daylight
06 Oct - 11:07:18 10° SW 11:08:15 10° SW 11:09:14 10° SW daylight
06 Oct - 18:22:39 10° SSW 18:28:55 52° ESE 18:35:08 10° NE daylight
06 Oct - 20:10:10 10° WSW 20:14:49 21° WNW 20:19:27 10° NNW visible
07 Oct - 07:39:51 10° NNE 07:44:13 22° ENE 07:48:41 10° ESE daylight
07 Oct - 09:24:25 10° NW 09:30:07 46° WSW 09:36:02 10° SSE daylight
07 Oct - 16:48:20 10° SSE 16:50:53 12° SE 16:53:25 10° ESE daylight
07 Oct - 18:31:46 10° SSW 18:38:14 79° ESE 18:44:36 10° NNE visible
07 Oct - 20:21:05 10° WSW 20:23:47 13° WNW 20:26:28 10° NW visible
08 Oct - 07:47:57 10° N 07:53:13 34° ENE 07:58:40 10° SE daylight
08 Oct - 09:34:18 10° WNW 09:39:31 31° WSW 09:44:55 10° S daylight
08 Oct - 16:56:12 10° S 17:00:32 19° SE 17:04:50 10° E daylight
08 Oct - 18:41:03 10° SSW 18:47:26 69° WNW 18:53:45 10° NNE visible
09 Oct - 07:56:33 10° N 08:02:19 55° ENE 08:08:17 10° SE daylight
09 Oct - 09:44:37 10° W 09:49:01 21° SW 09:53:33 10° S daylight
09 Oct - 17:04:43 10° S 17:10:05 27° SE 17:15:24 10° ENE daylight
09 Oct - 18:50:31 10° SW 18:56:35 45° WNW 19:02:34 10° N visible
10 Oct - 08:05:32 10° NNW 08:11:29 86° ENE 08:17:40 10° SSE daylight
10 Oct - 09:55:37 10° WSW 09:58:38 14° SW 10:01:42 10° SSW daylight
10 Oct - 17:13:31 10° S 17:19:32 40° ESE 17:25:28 10° NE daylight
10 Oct - 19:00:17 10° SW 19:05:39 29° WNW 19:10:59 10° NNW visible
11 Oct - 06:31:42 10° NE 06:35:04 16° ENE 06:38:30 10° ESE daylight
11 Oct - 08:14:51 10° NW 08:20:44 62° WSW 08:26:51 10° SSE daylight
11 Oct - 17:22:31 10° SSW 17:28:53 60° ESE 17:35:10 10° NE daylight
11 Oct - 19:10:31 10° WSW 19:14:39 18° WNW 19:18:46 10° NW visible
12 Oct - 06:39:17 10° NNE 06:44:02 25° ENE 06:48:56 10° SE daylight
12 Oct - 08:24:29 10° NW 08:30:04 40° WSW 08:35:52 10° S daylight
12 Oct - 15:47:38 10° SSE 15:50:58 14° SE 15:54:16 10° E daylight
12 Oct - 17:31:41 10° SSW 17:38:09 90° ENE 17:44:32 10° NNE daylight
12 Oct - 19:22:29 10° W 19:23:36 10° W 19:24:43 10° WNW visible
13 Oct - 06:47:35 10° N 06:53:05 40° ENE 06:58:46 10° SE daylight
13 Oct - 08:34:30 10° WNW 08:39:31 27° SW 08:44:41 10° S daylight
13 Oct - 15:55:49 10° S 16:00:34 21° SE 16:05:18 10° E daylight
13 Oct - 17:41:02 10° SSW 17:47:20 60° WNW 17:53:34 10° N daylight
14 Oct - 06:56:19 10° NNW 07:02:11 65° ENE 07:08:17 10° SSE daylight
14 Oct - 08:45:01 10° W 08:49:03 18° SW 08:53:12 10° S daylight
14 Oct - 16:04:28 10° S 16:10:05 31° ESE 16:15:40 10° ENE daylight
14 Oct - 17:50:35 10° SW 17:56:27 38° WNW 18:02:15 10° N daylight
15 Oct - 05:24:37 10° ENE 05:25:57 11° E 05:27:17 10° E daylight
15 Oct - 07:05:25 10° NNW 07:11:22 82° WSW 07:17:35 10° SSE daylight
15 Oct - 08:56:25 10° WSW 08:58:42 12° SW 09:01:00 10° SSW daylight
15 Oct - 16:13:20 10° SSW 16:19:30 46° ESE 16:25:35 10° NE daylight
15 Oct - 18:00:29 10° SW 18:05:30 25° WNW 18:10:29 10° NNW daylight
